Marshfield, WI

5:14 AM CST on January 21, 2017 (GMT -0600)
Marshfield

Weather History for KMFI - January, 2011

Change the Weather History Date:

Tuesday, January 18, 2011

  Actual Average Record
Temperature  
Mean Temperature 14 °F -  
Max Temperature 21 °F 22 °F 43 °F (1944)
Min Temperature 7 °F 3 °F -32 °F (1967)
Degree Days  
Heating Degree Days 51    
Moisture  
Dew Point 6 °F    
Average Humidity 67    
Maximum Humidity 78    
Minimum Humidity 53    
Precipitation  
Precipitation 0.00 in - - ()
Sea Level Pressure  
Sea Level Pressure 29.97 in    
Wind  
Wind Speed 10 mph (NNE)    
Max Wind Speed 14 mph    
Max Gust Speed 21 mph    
Visibility 9 miles    
Events Snow    
Averages and records for this station are not official NWS values.
T = Trace of Precipitation, MM = Missing Value Source: NWS Daily Summary

Daily Weather History Graph

Daily Weather History Graph

Search for Another Location

Airport or City:

Trip Planner

Search our weather history database for the weather conditions in past years. The results will help you decide how hot, cold, wet, or windy it might be!

Date:

Astronomy

Jan. 18, 2011 Rise Set
Actual Time 7:32 AM CST 4:50 PM CST
Civil Twilight 7:00 AM CST 5:22 PM CST
Nautical Twilight 6:24 AM CST 5:58 PM CST
Astronomical Twilight 5:49 AM CST 6:33 PM CST
Moon 3:44 PM CST (1/18) 6:28 AM CST (1/18)
Length of Visible Light 10h 22m
Length of Day
9h 17m
Waxing Gibbous, 98% of the Moon is Illuminated
Jan 18
Waxing Gibbous
Jan 19
Full
Jan 26
Last Quarter
Feb 2
New
Feb 11
First Quarter

Hourly Weather History & Observations

Time (CST) Temp. Windchill Dew Point Humidity Pressure Visibility Wind Dir Wind Speed Gust Speed Precip Events Conditions
12:54 AM 21.0 °F 9.9 °F 15.1 °F 78% 29.75 in 7.0 mi North 10.4 mph - N/A   Overcast
1:54 AM 21.0 °F 9.9 °F 15.1 °F 78% 29.78 in 7.0 mi North 10.4 mph - N/A   Overcast
3:54 AM 19.9 °F 8.6 °F 14.0 °F 78% 29.81 in 8.0 mi North 10.4 mph - N/A   Overcast
4:54 AM 19.0 °F 6.8 °F 12.0 °F 74% 29.85 in 10.0 mi North 11.5 mph - N/A   Overcast
5:02 AM 19.4 °F 7.9 °F 12.2 °F 74% 29.79 in 10.0 mi North 10.4 mph - N/A   Overcast
6:54 AM 18.0 °F 4.2 °F 10.0 °F 71% 29.91 in 10.0 mi NNW 13.8 mph - N/A   Overcast
7:10 AM 17.6 °F 4.3 °F 10.4 °F 73% 29.85 in 10.0 mi North 12.7 mph - N/A   Overcast
7:47 AM 17.6 °F 4.3 °F 8.6 °F 68% 29.87 in 10.0 mi North 12.7 mph - N/A   Overcast
8:38 AM 17.6 °F 5.7 °F 8.6 °F 68% 29.89 in 6.0 mi North 10.4 mph - N/A   Haze
8:54 AM 17.1 °F 3.6 °F 9.0 °F 71% 29.96 in 4.0 mi North 12.7 mph 20.7 mph 0.00 in Snow Light Snow
9:54 AM 17.1 °F 4.3 °F 9.0 °F 71% 29.98 in 6.0 mi North 11.5 mph 18.4 mph 0.00 in   Haze
10:54 AM 17.1 °F 3.0 °F 6.1 °F 62% 30.00 in 10.0 mi North 13.8 mph 20.7 mph N/A   Overcast
11:54 AM 17.1 °F 4.3 °F 6.1 °F 62% 30.00 in 10.0 mi NNE 11.5 mph - N/A   Overcast
12:54 PM 17.1 °F 6.6 °F 6.1 °F 62% 30.00 in 10.0 mi NE 8.1 mph - N/A   Overcast
1:45 PM 17.6 °F 7.3 °F 3.2 °F 53% 29.94 in 10.0 mi NNE 8.1 mph - N/A   Scattered Clouds
1:54 PM 17.1 °F 4.3 °F 3.0 °F 54% 30.01 in 10.0 mi North 11.5 mph - N/A   Partly Cloudy
2:54 PM 16.0 °F 6.3 °F 3.0 °F 57% 30.04 in 10.0 mi NE 6.9 mph - N/A   Clear
3:54 PM 15.1 °F 5.2 °F 3.0 °F 59% 30.06 in 10.0 mi NNE 6.9 mph - N/A   Clear
4:54 PM 14.0 °F 5.1 °F 1.9 °F 59% 30.07 in 10.0 mi NNE 5.8 mph - N/A   Clear
5:54 PM 12.9 °F 2.6 °F 1.9 °F 62% 30.09 in 10.0 mi NNE 6.9 mph - N/A   Clear
6:54 PM 10.9 °F 0.2 °F 1.0 °F 64% 30.09 in 10.0 mi NNE 6.9 mph - N/A   Clear
8:54 PM 8.1 °F -4.3 °F -0.0 °F 70% 30.10 in 10.0 mi NE 8.1 mph - N/A   Clear
9:54 PM 7.0 °F -4.5 °F -0.9 °F 70% 30.11 in 10.0 mi NE 6.9 mph - N/A   Clear
10:54 PM 7.0 °F -1.7 °F -0.9 °F 70% 30.12 in 10.0 mi NNE 4.6 mph - N/A   Scattered Clouds
11:54 PM 8.1 °F -2.0 °F -0.0 °F 70% 30.12 in 10.0 mi NE 5.8 mph - N/A   Overcast